Location: Unspecified
(0.0000°N, 0.0000°E)
Time: 10:07:57
(UTC+00:00)

Courier 1B Rocket - Pass Details

Date: 26 May 2026
Orbit: 920 x 1201 km, 28.2° (Epoch: 9 June)

Event Time Altitude Azimuth Distance (km) Brightness Sun altitude
Rises 21:12:45 0° 223° (SW) 4,088 8.4 -44.6°
Enters shadow 21:13:25 - 221° (SW) 3,887 8.2 -44.8°
Reaches altitude 10° 21:16:00 10° 212° (SSW) 3,130 - -45.3°
Maximum altitude 21:22:44 31° 153° (SSE) 1,950 - -46.8°
Drops below altitude 10° 21:29:20 10° 93° (E) 3,066 - -48.1°
Sets 21:32:28 0° 83° (E) 3,992 - -48.8°
